Date,TemperatureHighF,TemperatureAvgF,TemperatureLowF,DewpointHighF,DewpointAvgF,DewpointLowF,HumidityHigh,HumidityAvg,HumidityLow,PressureMaxIn,PressureMinIn,WindSpeedMaxMPH,WindSpeedAvgMPH,GustSpeedMaxMPH,PrecipitationSumIn
2013-2-24,38.1,37.1,35.9,21.0,21.0,21.0,51,49,48,30.10,30.09,5,2,6,0.00
2013-2-25,45.0,34.5,25.0,21.0,18.1,14.0,77,51,32,30.23,30.10,5,0,6,0.00
2013-2-26,41.8,33.0,24.6,42.0,30.5,21.0,99,89,75,30.20,29.60,8,1,8,0.93
2013-2-27,56.1,45.2,34.8,43.0,35.5,31.0,100,72,42,29.72,29.57,11,2,12,0.01
2013-2-28,45.8,41.6,37.8,32.0,27.2,23.0,72,56,41,29.78,29.65,8,2,10,0.00
2013-3-1,41.6,38.2,34.5,31.0,25.7,23.0,80,60,50,29.91,29.76,7,1,7,0.00
2013-3-2,37.8,34.8,32.7,24.0,21.3,18.0,66,55,48,29.91,29.83,6,1,8,0.00
2013-3-3,46.3,34.1,25.1,23.0,17.3,14.0,80,50,32,29.94,29.81,8,2,10,0.00
2013-3-4,51.2,35.5,23.7,18.0,12.6,8.0,65,39,18,30.05,29.93,9,2,11,0.00
2013-3-5,51.4,38.3,27.8,35.0,24.8,16.0,96,60,32,30.06,29.74,5,0,5,0.13
2013-3-6,33.4,32.4,32.0,33.0,32.0,31.0,98,98,96,29.74,29.58,4,0,5,0.00
2013-3-11,57.8,55.2,52.9,50.5,48.3,47.0,88,77,70,29.97,29.91,0,0,1,0.01
2013-3-12,65.7,55.4,43.4,58.0,46.0,28.0,100,74,42,29.97,29.72,9,1,10,1.42
2013-3-13,50.5,40.6,30.1,31.0,23.6,14.0,91,52,30,30.11,29.93,11,2,12,0.00
2013-3-14,51.0,39.1,29.2,18.0,15.1,11.0,54,37,22,30.18,30.05,11,3,12,0.00
2013-3-15,60.4,44.6,26.2,33.0,24.7,14.0,82,46,31,30.12,29.81,12,1,12,0.00
2013-3-16,69.7,48.7,36.8,56.5,42.3,32.0,97,80,46,29.89,29.62,8,1,9,0.19
2013-3-17,43.4,36.9,32.2,39.0,35.0,31.0,98,92,85,30.27,29.89,5,0,6,0.03
2013-3-18,32.7,32.2,32.0,33.0,32.3,32.0,100,99,97,30.28,29.89,4,0,5,0.30
2013-3-19,62.1,44.1,32.3,43.0,25.9,4.0,100,62,15,29.99,29.75,18,3,18,0.27
2013-3-20,55.4,43.0,28.6,23.0,13.6,4.0,63,31,18,30.03,29.77,12,2,14,0.00
2013-3-21,38.7,33.9,27.9,28.0,14.0,8.0,64,43,28,29.94,29.77,14,2,14,0.00
2013-3-22,51.9,36.6,24.7,21.0,14.8,8.0,62,40,23,30.00,29.88,9,2,11,0.00
2013-3-23,57.3,39.0,22.9,26.0,20.7,16.0,87,52,21,30.06,29.90,7,1,8,0.00
2013-3-24,39.9,33.9,30.4,31.0,26.0,21.0,97,74,45,30.00,29.64,6,0,7,0.00
2013-3-25,34.9,31.9,30.9,33.0,31.5,29.0,99,97,90,29.72,29.55,1,0,1,0.32
2013-3-26,46.3,37.4,27.9,35.0,28.3,24.0,98,72,45,30.05,29.72,8,1,8,0.24
2013-3-27,49.4,40.8,32.4,28.0,24.6,21.0,72,53,35,30.17,30.05,10,2,15,0.00
2013-3-28,49.9,41.3,32.9,28.0,24.1,23.0,76,51,37,30.26,30.13,11,2,12,0.00
2013-3-29,58.9,42.7,29.3,33.0,27.0,23.0,90,58,26,30.29,30.16,7,1,8,0.00
2013-3-30,64.5,45.0,27.2,33.0,27.4,24.0,91,56,24,30.24,30.08,8,1,9,0.00
2013-3-31,54.3,44.1,38.0,49.0,40.0,31.0,98,86,69,30.10,29.77,3,0,4,0.02
2013-4-1,63.8,49.6,36.4,43.0,35.4,21.0,99,63,33,30.02,29.79,19,2,19,0.00
2013-4-2,54.2,42.9,30.6,21.0,15.2,8.0,65,34,16,30.18,30.01,15,2,15,0.00
2013-4-3,56.3,40.5,23.7,24.0,15.8,8.0,85,42,15,30.37,30.17,11,2,11,0.00
2013-4-4,48.2,36.5,26.2,33.0,20.4,14.0,97,56,25,30.42,30.06,6,0,8,0.24
2013-4-5,66.3,48.6,34.8,43.0,32.9,26.0,99,64,23,30.05,29.86,8,1,8,0.27
2013-4-6,60.2,47.7,34.6,31.0,22.5,11.0,66,40,16,30.32,30.05,6,1,6,0.00
2013-4-7,73.1,55.8,37.6,42.0,35.2,26.0,71,47,31,30.27,30.01,8,1,9,0.00
2013-4-8,84.4,65.2,43.3,49.0,43.9,39.0,88,51,23,30.11,29.96,8,1,9,0.00
2013-4-9,88.1,72.8,54.1,54.0,50.6,48.0,84,49,29,30.12,29.97,6,1,8,0.00
2013-4-10,94.2,75.9,58.3,57.5,52.8,50.0,79,48,25,30.02,29.83,8,1,8,0.00
2013-4-11,89.3,73.5,57.5,59.0,55.0,51.0,87,55,32,29.91,29.74,11,0,11,0.00
2013-4-12,81.1,70.4,61.2,66.0,55.3,36.0,98,64,31,29.76,29.57,11,2,13,0.76
2013-4-13,74.0,60.8,42.7,40.0,34.2,24.0,85,40,21,29.98,29.76,10,2,12,0.00
2013-4-14,77.6,60.1,40.8,42.0,37.2,31.0,86,47,24,30.12,29.98,6,1,6,0.00
2013-4-15,60.7,56.0,51.4,56.5,51.9,41.0,98,87,49,30.29,30.10,4,0,4,0.24
2013-4-16,73.0,61.4,53.6,61.0,56.6,53.0,100,86,61,30.32,30.16,4,0,6,0.02
2013-4-17,85.9,68.9,58.0,65.0,59.2,54.5,100,75,37,30.23,30.11,6,0,8,0.02
2013-4-18,78.0,66.4,59.6,64.5,58.5,54.5,98,78,47,30.22,30.00,6,0,7,0.05
2013-4-19,75.2,66.9,57.7,66.7,60.6,41.0,98,81,54,30.00,29.64,10,1,10,0.50
2013-4-20,63.1,53.9,43.1,41.0,29.9,24.0,69,41,24,30.32,29.77,9,2,13,0.00
2013-4-21,55.4,45.1,33.8,36.0,30.3,24.0,93,59,36,30.58,30.32,9,1,9,0.00
2013-4-22,57.9,45.7,30.9,38.0,32.8,28.0,97,64,38,30.56,30.36,7,1,8,0.00
2013-4-23,64.4,53.5,46.5,46.0,40.7,36.0,88,63,47,30.38,30.12,6,1,6,0.00
2013-4-24,79.6,60.5,40.5,57.5,49.1,40.0,98,71,37,30.14,29.84,9,1,10,0.00
2013-4-25,67.7,56.3,45.3,50.5,34.4,24.0,74,46,20,30.32,30.02,8,1,9,0.00
2013-4-26,68.7,53.2,36.2,42.0,36.4,32.0,94,58,27,30.47,30.32,6,0,6,0.00
2013-4-27,73.2,57.0,44.0,46.0,42.6,39.0,92,64,32,30.41,30.27,5,0,5,0.00
2013-6-19,74.7,71.0,67.3,68.5,67.4,66.3,98,89,76,30.19,30.10,0,0,0,0.00
2013-6-20,78.2,70.9,66.5,67.5,65.8,60.5,100,85,64,30.30,30.18,3,0,3,0.01
2013-6-21,81.0,70.5,59.3,64.5,60.4,56.0,97,72,53,30.33,30.24,3,0,4,0.01
2013-6-22,83.4,71.6,59.4,72.3,65.7,58.0,99,83,57,30.30,30.16,4,0,4,0.01
2013-6-23,85.3,75.7,68.7,74.0,70.5,67.0,100,85,63,30.23,30.12,4,0,4,0.01
2013-6-24,88.5,76.4,69.4,76.0,71.5,67.5,99,86,60,30.18,30.09,7,0,7,0.01
2013-6-25,89.9,78.9,68.5,74.7,71.7,68.0,99,80,52,30.11,29.95,4,0,4,0.01
2013-6-26,89.2,74.7,69.3,74.7,71.1,66.7,100,90,58,29.98,29.89,5,0,6,0.00
2013-6-27,82.3,73.6,68.0,75.0,70.7,68.0,100,91,72,29.91,29.69,4,0,4,0.01
2013-6-28,90.4,79.3,69.2,72.0,68.5,60.5,97,71,44,29.72,29.51,6,0,7,0.00
2013-6-29,85.5,74.8,62.7,68.5,64.5,61.0,97,72,47,29.75,29.59,5,0,5,0.00
2013-6-30,86.7,73.7,66.2,74.7,69.8,65.5,98,88,66,29.90,29.74,3,0,3,0.01
2013-7-1,80.4,74.3,70.3,75.5,72.0,69.3,100,93,81,30.01,29.88,2,0,3,0.00
2013-7-2,77.4,74.2,71.6,74.3,72.9,71.7,100,95,86,30.21,30.00,4,0,4,0.00
2013-7-3,83.5,75.2,72.0,78.7,74.4,72.0,100,98,79,30.28,30.19,3,0,4,0.00
2013-7-4,86.9,78.4,73.2,78.7,75.3,73.0,100,91,65,30.30,30.20,5,0,5,0.01
2013-7-5,89.1,78.9,72.0,76.8,74.4,72.0,100,88,62,30.28,30.18,4,0,4,0.00
2013-7-6,89.5,79.4,71.0,77.0,73.4,71.0,100,83,60,30.24,30.13,4,0,4,0.00
2013-7-7,88.8,77.3,71.0,75.5,72.4,67.0,100,86,63,30.17,30.05,8,0,10,0.00
2013-7-8,86.9,74.4,68.8,74.3,71.2,67.5,100,91,55,30.17,30.11,6,0,6,0.00
2013-7-9,83.8,76.5,70.2,77.3,73.7,70.0,100,91,76,30.16,30.06,2,0,2,0.01
2013-7-10,87.1,77.8,73.7,80.3,76.0,73.3,100,95,72,30.08,29.95,6,0,8,0.00
2013-7-15,90.0,77.9,76.2,76.0,74.8,74.0,97,92,62,30.29,30.28,0,0,2,0.00
2013-7-16,89.0,76.5,71.2,77.0,73.6,71.0,100,93,64,30.30,30.27,3,0,3,0.00
2013-7-17,89.0,79.5,73.8,79.0,76.2,73.0,100,92,65,30.29,30.24,0,0,1,0.01
2013-7-26,86.9,62.7,57.8,78.0,61.1,57.0,100,96,77,30.26,30.11,0,0,0,0.00
2013-11-4,44.9,44.3,43.7,26.0,26.0,26.0,47,47,46,30.62,30.60,4,1,4,0.00
2013-11-8,54.6,53.3,51.2,28.0,26.1,24.0,40,35,31,30.26,30.24,7,4,7,0.00
2013-11-9,56.5,55.5,54.3,31.0,30.4,29.0,39,37,36,30.28,30.24,6,2,5,0.12
2013-11-11,57.0,56.9,56.7,28.0,28.0,28.0,32,32,32,30.26,30.26,2,1,2,0.00
2013-11-13,45.1,43.4,41.3,18.0,17.7,16.0,37,35,32,30.51,30.02,6,3,6,0.06
2013-11-19,50.3,48.9,46.8,28.0,26.2,24.0,42,41,40,30.23,30.22,6,3,6,0.00
2013-11-25,38.1,37.1,36.4,11.0,11.0,11.0,35,34,32,30.47,30.45,3,1,3,0.00
2013-11-28,40.4,39.5,38.1,21.0,18.2,11.0,44,41,32,30.45,30.39,4,1,4,0.00
2013-11-29,44.5,42.8,37.4,24.0,23.0,18.0,46,45,43,30.61,30.60,3,1,4,0.00
2013-12-3,55.6,55.6,55.6,40.0,40.0,40.0,55,55,55,29.96,29.96,0,0,0,0.00
2013-12-20,64.0,55.0,50.5,40.0,38.0,35.0,63,54,35,30.08,30.03,3,0,3,0.00
2013-12-21,69.7,58.3,47.1,60.0,49.8,39.0,86,74,61,30.06,29.94,9,1,12,0.00
2013-12-22,69.0,64.1,59.3,64.0,60.2,55.0,98,89,64,30.03,29.86,10,1,11,0.31
2013-12-23,61.7,55.3,39.4,61.0,51.4,29.0,100,88,62,30.23,29.94,6,1,9,0.72
2013-12-24,41.4,34.0,24.0,29.0,22.5,11.0,92,62,41,30.47,30.20,8,1,10,0.00
2013-12-25,36.3,25.2,17.0,21.0,15.4,11.0,88,65,41,30.54,30.34,4,0,4,0.00
2013-12-26,50.8,31.6,18.0,28.0,21.9,16.0,93,69,34,30.36,30.21,9,0,9,0.00
2013-12-27,53.9,33.7,21.5,29.0,22.9,21.0,94,69,30,30.43,30.32,5,0,5,0.00
2013-12-28,60.0,38.4,22.1,33.0,26.5,21.0,95,67,26,30.35,30.13,6,0,6,0.00
2013-12-29,53.2,45.2,39.6,50.0,42.0,32.0,100,89,66,30.13,29.61,9,0,11,1.83
2013-12-30,50.0,42.6,33.7,42.0,35.9,29.0,95,77,56,30.17,29.85,4,0,4,0.00
2013-12-31,48.3,36.8,28.0,33.0,26.3,18.0,99,68,35,30.32,30.14,13,1,13,0.00
2014-1-1,52.5,35.5,25.0,31.0,26.2,23.0,94,70,40,30.39,30.10,4,0,4,0.00
2014-1-2,40.2,32.9,27.9,35.0,30.2,26.0,99,89,67,30.11,29.61,3,0,3,0.11